Probability
0 0 0 0 0 0 0 0 0 0 0 0 0 0 0 0 0 0 0 0 0 0 0 0 0 0 0 0 0 0 0 0 0 0 0 0 0 0 0 0 0 0 0
0 0 0 0 0 0 0 0 0 0 0 0 0 0 0 0 0 0 0 0 0 0 0 0 0 0 0 0 0 0 0 0 0 0 0 0 0 0 0 0 0 0 0
0 0 0 0 0 0 0 0 0 0 0 0 0 0 0 0 0 0 0 0 0 0 0 0 0 0 0 0 0 0 0 0 0 0 0 0 0 0 0 0 0 0 0
0 0 0 0 0 0 0 0 0 0 0 0 0 0 0 0 0 0 0 0 0 0 0 0 0 0 0 0 0 0 0 0 0 0 0 0 0 0 0 0 0 0 0
0 0 0 0 0 0 0 0 0 0 0 0 0 0 0 0 0 0 0 0 0 0 0 0 0 0 0 0 0 0 0 0 0 0 0 0 0 0 0 0 0 0 0
0 0 0 0 0 0 0 0 0 0 0 0 0 0 0 0 0 0 0 0 0 0 0 0 0 0 0 0 0 0 0 0 0 0 0 0 0 0 0 0 0 0 0
0 0 0 0 0 0 0 0 0 0 0 0 0 0 0 0 0 0 0 0 0 0 0 0 0 0 0 0 0 0 0 0 0 0 0 0 0 0 0 0 0 0 0
0 0 0 0 0 0 0 0 0 0 0 0 0 0 0 0 0 0 0 0 0 0 0 0 0 0 0 0 0 0 0 0 0 0 0 0 0 0 0 0 0 0 0
0 0 0 0 0 0 0 0 0 0 0 0 0 0 0 0 0 0 0 0 0 0 0 0 0 0 0 0 0 0 0 0 0 0 0 0 0 0 0 0 0 0 0
0 0 0 0 0 0 0 0 0 0 0 0 0 0 0 0 0 0 0 0 0 0 0 0 0 0 0 0 0 0 0 0 0 0 0 0 0 0 0 0 0 0 0
0 0 0 0 0 0 0 0 0 0 0 0 0 0 0 0 0 0 0 0 0 0 0 0 0 0 0 0 0 0 0 0 0 0 0 0 0 0 0 0 0 0 0
0 0 0 0 0 0 0 0 0 0 0 0 0 0 0 0 0 0 0 0 0 0 0 0 0 0 0 0 0 0 0 0 0 0 0 0 0 0 0 0 0 0 0
0 0 0 0 0 0 0 0 0 0 0 0 0 0 0 0 0 0 0 0 0 0 0 0 0 0 0 0 0 0 0 0 0 0 0 0 0 0 0 0 0 0 0
0 0 0 0 0 0 0 0 0 0 0 0 0 0 0 0 0 0 0 0 0 0 0 0 0 0 0 0 0 0 0 0 0 0 0 0 0 0 0 0 0 0 0
0 0 0 0 0 0 0 0 0 0 0 0 0 0 0 0 0 0 0 0 0 0 0 0 0 0 0 0 0 0 0 0 0 0 0 0 0 0 0 0 0 0 0
0 0 0 0 0 0 0 0 0 0 0 0 0 0 0 0 0 0 0 0 0 0 0 0 0 0 0 0 0 0 0 0 0 0 0 0 0 0 0 0 0 0 0
0 0 0 0 0 0 0 0 0 0 0 0 0 0 0 0 0 0 0 0 0 0 0 0 0 0 0 0 0 0 0 0 0 0 0 0 0 0 0 0 0 0 0
0 0 0 0 0 0 0 0 0 0 0 0 0 0 0 0 0 0 0 0 0 0 0 0 0 0 0 0 0 0 0 0 0 0 0 0 0 0 0 0 0 0 0
0 0 0 0 0 0 0 0 0 0 0 0 0 0 0 0 0 0 0 0 0 0 0 0 0 0 0 0 0 0 0 0 0 0 0 0 0 0 0 0 0 0 0
0 0 0 0 0 0 0 0 0 0 0 0 0 0 0 0 0 0 0 0 0 0 0 0 0 0 0 0 0 0 0 0 0 0 0 0 0 0 0 0 0 0 0
0 0 0 0 0 0 0 0 0 0 0 0 0 0 0 0 0 0 0 0 0 0 0 0 0 0 0 0 0 0 0 0 0 0 0 0 0 0 0 0 0 0 0
0 0 0 0 0 0 0 0 0 0 0 0 0 0 0 0 0 0 0 0 0 0 0 0 0 0 0 0 0 0 0 0 0 0 0 0 0 0 0 0 0 0 0
0 0 0 0 0 0 0 0 0 0 0 0 0 0 0 0 0 0 0 0 0 0 0 0 0 0 0 0 0 0 0 0 0 0 0 0 0 0 0 0 0 0 0
0 0 0 0 0 0 0 0 0 0 0 0 0 0 0 0 0 0 0 0 0 0 0 0 0 0 0 0 0 0 0 0 0 0 0 0 0 0 0 0 0 0 0
0 0 0 0 0 0 0 0 0 0 0 0 0 0 0 0 0 0 0 0 0 0 0 0 0 0 0 0 0 0 0 0 0 0 0 0 0 0 0 0 0 0 0
0 0 0 0 0 0 0 0 0 0 0 0 0 0 0 0 0 0 0 0 0 0 0 0 0 0 0 0 0 0 0 0 0 0 0 0 0 0 0 0 0 0 0
Height
5779 5778 5781 5783 5782 5781 5781 5780 5778 5778 5778 5777 5775 5774 5774 5774 5773 5772 5770 5767 5765 5764 5763 5761 5761 5761 5762 5762 5763 5765 5766 5765 5767 5769 5770 5772 5774 5774 5775 5775 5776 5776 5776
5768 5769 5771 5771 5771 5771 5771 5770 5770 5770 5769 5769 5768 5767 5768 5768 5767 5766 5765 5763 5761 5759 5760 5757 5755 5755 5756 5757 5757 5758 5760 5759 5761 5762 5763 5765 5767 5768 5769 5769 5769 5770 5771
5760 5761 5762 5762 5761 5762 5763 5763 5762 5761 5761 5761 5761 5760 5760 5760 5760 5760 5760 5760 5757 5756 5755 5754 5751 5751 5752 5753 5752 5751 5754 5755 5757 5758 5758 5759 5761 5763 5763 5762 5764 5765 5765
5753 5754 5754 5754 5753 5754 5755 5755 5754 5753 5752 5753 5753 5753 5753 5753 5753 5753 5753 5753 5752 5750 5748 5748 5747 5747 5748 5748 5748 5748 5749 5750 5749 5751 5752 5753 5755 5757 5757 5756 5758 5759 5759
5744 5745 5747 5746 5745 5746 5747 5746 5746 5744 5744 5745 5744 5745 5745 5745 5745 5744 5744 5744 5743 5743 5742 5742 5742 5741 5741 5742 5742 5742 5742 5744 5744 5744 5746 5747 5748 5749 5750 5750 5751 5752 5753
5735 5735 5736 5737 5737 5737 5738 5738 5738 5737 5737 5738 5737 5736 5736 5736 5737 5736 5736 5734 5734 5734 5735 5735 5734 5732 5733 5735 5735 5736 5735 5736 5737 5737 5738 5739 5741 5741 5742 5743 5744 5745 5745
5727 5727 5728 5729 5729 5729 5729 5731 5731 5730 5729 5729 5728 5728 5729 5728 5728 5727 5726 5726 5726 5726 5725 5725 5725 5724 5725 5726 5727 5728 5728 5728 5729 5729 5729 5729 5732 5733 5734 5736 5737 5737 5739
5718 5718 5718 5719 5721 5721 5722 5723 5724 5722 5722 5722 5721 5720 5721 5721 5720 5719 5717 5716 5715 5714 5714 5713 5714 5714 5714 5714 5715 5715 5715 5716 5717 5719 5720 5720 5721 5722 5724 5726 5727 5729 5731
5711 5710 5711 5712 5713 5714 5715 5715 5716 5716 5715 5714 5713 5713 5713 5711 5711 5710 5709 5707 5706 5705 5703 5702 5702 5703 5703 5702 5702 5703 5703 5704 5705 5706 5707 5707 5708 5710 5712 5715 5717 5719 5720
5703 5703 5704 5704 5705 5706 5708 5708 5709 5709 5708 5707 5706 5706 5705 5704 5705 5704 5702 5700 5698 5695 5695 5693 5691 5690 5690 5690 5691 5691 5692 5692 5692 5693 5694 5695 5696 5698 5700 5703 5706 5707 5709
5695 5696 5697 5698 5700 5701 5702 5703 5703 5702 5701 5700 5699 5698 5697 5697 5697 5697 5696 5694 5692 5690 5688 5686 5685 5683 5681 5680 5679 5679 5679 5679 5679 5681 5682 5684 5685 5687 5689 5691 5693 5695 5697
5689 5690 5691 5693 5695 5697 5697 5698 5698 5696 5696 5694 5693 5692 5691 5690 5689 5689 5688 5686 5685 5684 5683 5680 5678 5677 5676 5674 5672 5671 5670 5669 5668 5668 5670 5672 5673 5675 5678 5679 5680 5682 5684
5685 5686 5688 5690 5692 5692 5693 5693 5694 5693 5691 5689 5688 5686 5685 5684 5682 5681 5680 5679 5677 5675 5673 5672 5671 5668 5667 5667 5664 5663 5661 5660 5659 5658 5658 5659 5659 5662 5665 5666 5669 5670 5672
5685 5686 5687 5688 5689 5690 5690 5690 5690 5689 5687 5685 5684 5683 5681 5679 5677 5675 5672 5670 5668 5666 5664 5662 5660 5659 5657 5656 5655 5654 5654 5654 5653 5651 5650 5650 5650 5650 5651 5654 5656 5657 5659
5685 5686 5686 5686 5686 5686 5685 5685 5685 5684 5683 5680 5678 5677 5675 5673 5671 5669 5666 5663 5661 5658 5655 5653 5651 5649 5647 5646 5644 5643 5644 5644 5643 5643 5643 5642 5642 5642 5642 5644 5644 5644 5645
5684 5684 5683 5682 5682 5681 5680 5680 5680 5679 5677 5675 5673 5672 5670 5667 5664 5661 5658 5655 5651 5648 5646 5644 5642 5639 5638 5637 5635 5634 5634 5632 5631 5630 5630 5631 5632 5632 5633 5635 5636 5637 5637
5681 5680 5679 5679 5678 5677 5676 5676 5675 5673 5671 5669 5667 5665 5664 5661 5658 5654 5650 5647 5643 5640 5637 5635 5633 5630 5628 5627 5626 5625 5623 5621 5619 5618 5617 5618 5619 5620 5621 5623 5625 5626 5627
5677 5676 5675 5674 5674 5673 5672 5671 5669 5668 5666 5663 5660 5658 5656 5654 5651 5647 5643 5640 5637 5633 5630 5628 5625 5622 5619 5617 5615 5614 5612 5610 5608 5605 5603 5602 5603 5604 5606 5609 5611 5613 5615
5672 5671 5671 5670 5669 5668 5667 5665 5664 5663 5661 5659 5656 5653 5650 5647 5643 5640 5637 5634 5631 5628 5625 5621 5617 5614 5610 5608 5605 5603 5600 5596 5593 5590 5588 5586 5586 5587 5589 5591 5594 5597 5599
5666 5666 5665 5664 5664 5663 5662 5660 5659 5658 5658 5655 5653 5650 5645 5641 5637 5634 5632 5629 5625 5620 5616 5613 5609 5605 5602 5599 5595 5591 5587 5583 5579 5576 5573 5571 5570 5571 5572 5574 5577 5580 5583
5660 5661 5660 5659 5658 5658 5656 5655 5655 5654 5653 5651 5647 5644 5641 5637 5634 5630 5627 5624 5620 5615 5611 5607 5603 5598 5594 5590 5587 5583 5579 5574 5569 5564 5561 5558 5556 5556 5557 5559 5560 5564 5567
5653 5654 5654 5653 5652 5651 5650 5649 5648 5647 5645 5644 5642 5640 5637 5634 5630 5627 5624 5619 5614 5610 5607 5603 5598 5593 5588 5584 5579 5575 5571 5567 5562 5555 5551 5549 5547 5545 5544 5545 5546 5547 5551
5647 5646 5646 5646 5646 5645 5643 5643 5642 5641 5640 5639 5637 5635 5633 5629 5625 5622 5618 5614 5609 5604 5599 5595 5590 5585 5580 5576 5572 5568 5564 5560 5555 5549 5544 5540 5538 5535 5533 5532 5532 5532 5534
5640 5640 5639 5639 5639 5639 5638 5637 5636 5635 5635 5634 5632 5630 5628 5624 5620 5616 5611 5606 5601 5596 5590 5586 5581 5576 5572 5567 5564 5560 5556 5552 5548 5543 5538 5534 5530 5527 5524 5522 5521 5521 5521
5630 5632 5632 5633 5633 5632 5632 5630 5630 5629 5628 5627 5626 5625 5623 5620 5616 5611 5605 5600 5595 5589 5584 5579 5574 5570 5566 5561 5556 5553 5548 5544 5540 5536 5531 5527 5523 5520 5517 5513 5511 5510 5511
5621 5623 5625 5627 5628 5628 5627 5626 5624 5623 5622 5621 5621 5620 5618 5615 5610 5604 5600 5595 5589 5583 5579 5574 5569 5563 5558 5553 5549 5545 5541 5536 5531 5526 5522 5518 5515 5511 5509 5506 5502 5500 5500
Wind_Speed
32 36 42 42 41 40 40 39 36 34 34 35 35 34 33 31 30 26 20 22 20 19 21 26 28 28 25 24 22 23 24 24 27 26 25 25 24 26 22 23 22 20 19
30 31 33 34 35 35 35 35 35 33 32 33 33 34 33 31 27 22 20 18 18 17 21 21 22 20 22 21 22 26 23 19 24 25 22 21 21 23 22 22 18 20 20
32 33 34 33 33 34 34 33 33 33 32 32 33 33 32 30 27 24 23 23 19 18 20 22 19 17 16 20 20 23 24 20 21 23 23 21 22 22 20 17 19 21 20
29 30 31 31 31 31 32 32 31 32 33 32 32 33 32 31 29 30 30 30 28 24 21 21 20 18 18 18 18 17 19 21 22 23 25 24 22 23 20 20 21 20 19
30 30 30 30 30 31 32 32 31 31 32 32 32 31 31 30 30 32 31 29 29 28 27 28 26 24 23 23 22 23 24 25 25 25 27 26 24 23 21 21 21 20 19
28 29 30 31 29 29 30 31 29 29 31 31 30 28 28 28 29 30 29 28 28 28 27 27 29 29 29 30 29 28 27 26 27 27 28 28 28 26 25 24 23 23 23
27 26 28 33 32 29 28 30 30 30 28 28 29 28 28 26 26 27 28 28 26 27 26 27 27 28 29 31 32 32 32 31 30 30 30 29 31 30 28 29 28 26 25
25 24 24 28 30 28 27 27 27 28 28 28 29 29 26 26 26 26 26 27 26 26 25 26 27 28 29 30 30 31 31 32 33 34 34 33 34 34 33 32 34 34 31
23 24 24 26 27 27 25 24 24 24 24 25 26 26 26 26 26 25 24 24 26 28 28 27 25 25 26 28 31 34 36 37 38 38 40 40 39 38 38 37 38 38 35
23 22 21 22 23 22 20 20 21 22 23 23 23 24 25 25 25 25 23 23 26 29 31 30 28 25 23 23 26 31 36 39 41 42 43 43 43 42 42 43 43 43 42
24 23 21 19 18 17 16 16 16 17 17 18 19 20 22 21 19 19 20 20 22 24 26 26 24 24 24 24 24 25 27 30 35 40 43 43 44 44 45 45 45 45 45
17 16 14 13 14 14 14 14 14 14 16 18 19 19 20 20 20 21 22 23 24 24 24 25 26 26 26 26 26 27 27 28 29 32 37 41 44 46 44 42 41 42 45
4 5 5 6 8 10 12 12 11 13 16 18 19 20 21 22 23 23 24 24 26 27 27 26 28 30 28 27 26 27 29 29 29 28 29 32 37 40 44 46 46 43 43
6 0 5 6 7 7 9 11 14 17 18 18 17 19 21 22 23 24 26 27 28 29 31 32 33 33 31 30 30 30 30 31 31 28 25 24 28 32 35 40 43 45 41
2 0 2 5 7 10 12 12 12 12 13 15 16 17 18 20 21 22 24 26 28 29 30 31 30 29 29 30 31 31 30 32 34 33 31 29 27 26 26 28 32 33 34
5 5 7 8 9 9 9 10 11 12 14 16 18 20 22 25 27 29 30 31 31 30 30 29 27 28 27 26 26 28 27 27 29 33 34 33 33 32 31 28 26 28 27
11 11 11 11 11 11 11 11 12 13 15 18 21 22 23 25 27 28 30 31 29 27 27 27 27 29 30 30 31 32 32 33 33 34 35 36 37 38 37 36 35 33 34
15 15 15 14 13 13 12 12 13 15 17 19 22 23 22 23 24 26 27 26 23 23 25 29 32 34 35 35 35 35 37 39 40 41 42 42 42 42 43 43 43 42 40
16 17 16 16 15 14 14 14 16 16 17 18 18 20 23 25 24 23 22 22 23 24 27 30 31 33 33 34 35 36 37 39 40 41 43 44 44 44 45 46 46 45 42
17 17 17 17 17 16 16 15 17 17 17 16 16 19 21 23 23 21 20 22 24 24 24 25 26 25 25 27 28 29 31 33 35 36 38 41 43 43 42 43 44 44 44
20 19 19 20 19 17 17 17 17 17 14 13 15 16 17 18 19 20 22 24 25 25 25 23 22 24 25 27 27 27 29 31 32 32 32 32 34 37 38 39 40 42 43
21 21 20 20 19 18 18 18 16 14 13 11 13 13 15 18 19 21 23 26 27 24 23 22 23 25 26 28 29 28 29 30 30 28 27 27 28 30 32 35 36 39 41
22 22 21 20 18 18 18 18 15 13 13 13 13 15 19 22 24 26 26 25 26 26 26 26 27 27 29 28 28 28 29 29 28 27 25 26 27 27 27 30 32 36 39
21 20 19 19 19 18 18 18 15 14 14 15 16 19 23 24 25 28 29 28 28 29 30 32 32 30 30 30 30 30 30 30 28 28 27 25 25 25 24 26 28 30 33
22 19 17 18 18 19 20 19 17 15 15 16 16 20 23 22 23 26 28 30 31 31 32 33 34 32 30 30 32 32 32 33 32 30 29 27 26 26 25 26 27 29 30
23 21 18 18 18 18 17 18 20 19 17 16 17 19 20 19 21 24 28 32 34 35 34 33 34 34 32 32 33 33 33 34 33 32 30 29 28 28 28 28 29 30 30
Wind_Direction
277 266 262 266 270 275 279 280 279 277 278 281 284 288 292 296 302 305 306 295 291 290 270 255 251 250 245 252 246 248 240 239 240 243 246 245 254 261 256 253 256 262 262
274 269 267 268 271 274 277 278 276 273 276 279 283 288 292 294 293 291 293 294 296 301 305 283 260 256 245 240 238 242 247 247 249 252 256 257 258 265 261 252 254 265 264
274 270 269 270 270 272 274 275 274 273 273 275 277 282 287 289 284 279 284 289 291 292 297 303 297 283 281 267 260 252 249 250 255 254 253 252 251 257 262 262 267 270 272
275 273 270 268 269 274 277 277 273 272 273 275 276 281 284 283 280 277 278 281 284 284 280 280 283 283 282 276 271 264 261 259 257 256 255 253 250 249 249 256 263 265 266
271 272 271 268 271 275 276 275 274 275 277 278 280 282 283 281 279 280 280 278 278 276 272 272 272 272 275 272 267 259 255 254 254 253 253 253 252 250 250 254 259 260 261
263 267 271 274 273 270 270 273 277 279 280 282 283 284 284 282 280 278 277 276 275 272 270 271 271 272 271 270 268 265 261 257 255 255 255 257 257 253 254 254 254 256 257
257 259 268 272 272 269 267 272 274 276 281 287 288 286 285 286 284 282 282 281 278 277 276 275 274 275 274 271 269 266 263 262 259 258 256 254 255 254 253 255 257 258 254
258 258 270 270 268 266 265 270 275 281 285 285 283 285 288 287 288 290 288 288 289 286 282 279 274 269 269 267 265 265 263 262 261 260 256 254 253 251 251 253 256 257 254
267 263 262 263 265 266 270 277 280 282 282 280 280 282 286 290 292 290 291 293 293 294 292 290 285 278 272 263 259 256 253 250 247 247 247 248 247 247 248 250 250 250 248
271 268 263 266 271 276 281 283 283 282 280 279 278 279 281 284 288 292 296 298 298 297 297 299 300 296 288 276 265 258 252 248 245 244 245 247 248 247 247 248 247 246 246
271 271 270 269 271 275 277 278 280 282 286 290 290 290 289 291 294 298 300 300 299 298 297 297 296 296 298 296 290 282 274 264 255 251 248 248 249 249 250 249 250 249 249
273 271 268 261 258 259 264 271 280 288 298 303 302 298 297 302 305 305 305 303 299 294 291 291 291 290 291 290 288 287 287 284 275 264 255 249 248 247 250 256 256 253 252
299 261 255 248 251 259 264 270 276 290 301 302 299 294 294 298 299 299 300 299 296 293 291 288 287 285 282 279 279 280 282 283 284 279 269 259 255 252 250 250 254 254 249
52 282 243 252 262 264 271 279 286 293 295 293 290 289 288 293 296 297 298 296 295 293 291 289 288 285 282 279 277 276 277 275 272 271 269 264 260 257 253 250 252 255 254
39 72 256 266 276 282 285 287 289 291 291 293 294 296 297 299 301 299 296 296 297 295 294 293 294 292 287 280 276 274 274 270 265 260 262 264 261 260 258 254 251 248 244
272 267 268 275 282 285 285 287 287 288 292 296 299 299 300 302 301 302 302 301 299 300 299 298 293 289 286 284 282 282 282 278 272 267 263 261 261 261 263 260 253 246 249
279 277 276 280 287 291 292 291 291 295 298 300 300 301 304 306 306 304 299 298 301 301 298 296 294 292 290 289 288 288 287 285 283 279 275 270 264 261 261 263 263 262 262
279 279 279 278 279 283 286 288 290 295 301 305 307 308 312 315 312 306 303 306 311 310 304 299 296 295 294 293 290 288 286 284 282 281 279 274 268 264 261 259 258 258 257
277 278 278 275 276 279 282 285 289 296 301 303 305 310 315 318 316 313 316 320 314 304 295 292 292 292 292 291 290 290 289 286 281 277 273 272 270 266 263 258 255 253 250
272 276 279 280 281 282 281 281 283 287 289 290 297 308 317 323 323 322 324 325 319 312 309 308 304 300 297 297 300 302 301 294 287 282 277 272 270 269 267 263 258 253 247
268 268 272 275 277 278 276 276 277 279 278 285 305 321 328 330 326 323 320 320 324 323 320 317 314 312 311 311 310 309 306 308 305 295 287 281 275 271 268 266 260 255 249
275 271 268 272 276 278 280 284 286 283 282 291 310 322 327 331 333 327 316 309 311 314 314 313 315 315 314 314 314 310 308 314 316 310 297 291 290 285 276 269 265 259 251
272 272 270 271 272 274 276 282 286 281 274 276 297 313 319 323 328 327 324 316 309 314 321 323 322 319 318 316 313 310 310 311 313 316 313 306 303 298 287 276 267 261 256
265 266 268 271 273 273 273 277 278 274 270 272 289 308 317 321 323 325 324 323 323 325 329 329 328 328 324 319 319 318 316 314 311 310 309 307 306 304 297 285 274 265 259
267 264 263 268 272 273 277 281 282 282 283 283 291 304 312 314 321 329 333 333 331 330 331 329 326 325 322 317 316 318 318 317 316 313 308 303 300 297 294 288 280 271 262
265 267 268 267 266 267 266 271 275 277 281 283 290 302 307 311 323 334 339 339 339 337 333 329 324 320 318 317 317 316 316 316 315 314 311 304 298 294 290 285 280 276 270